Location: Saint-Morand
(47.8012°N, 1.2794°W)
Time: 16:22:41
(UTC+00:00)

USA 305 - Pass Details

Date: 03 March 2021
Orbit: 567 x 574 km, 54.0° (Epoch: 22 April)

Event Time Altitude Azimuth Distance (km) Brightness Sun altitude
Rises 19:42:41 0° 287° (WNW) 2,781 8.1 -19.1°
Reaches altitude 10° 19:45:05 10° 297° (WNW) 1,881 6.7 -19.5°
Maximum altitude 19:49:03 36° 4° (N) 924 4.0 -20.2°
Enters shadow 19:50:10 30° 37° (NE) 1,034 4.0 -20.4°
